Location: Alta
(39.2070°N, 120.8111°W)
Time: 08:49:42
(UTC+00:00)

ESTCUBE 1 - Visible Passes

Search period start: 01 April 2023 00:00
Search period end: 11 April 2023 00:00
Orbit: 642 x 655 km, 97.9° (Epoch: 01 April)

Date Brightness Start Highest point End Pass type
(mag) Time Alt. Az. Time Alt. Az. Time Alt. Az.
01 Apr ? 06:12:45 13° NNW 06:12:45 13° NNW 06:13:11 10° NNW visible
02 Apr ? 05:01:13 11° NNE 05:01:13 11° NNE 05:01:31 10° NNE visible
02 Apr ? 06:38:58 10° NNW 06:38:58 10° NNW 06:38:59 10° NNW visible
03 Apr ? 05:27:25 15° NNE 05:27:25 15° NNE 05:28:14 10° N visible
04 Apr ? 05:53:38 16° N 05:53:38 16° N 05:54:33 10° N visible
05 Apr ? 06:19:49 14° NNW 06:19:49 14° NNW 06:20:32 10° NNW visible
06 Apr ? 05:08:16 14° NNE 05:08:16 14° NNE 05:09:09 10° NNE visible
06 Apr ? 06:46:01 11° NNW 06:46:01 11° NNW 06:46:13 10° NNW visible
07 Apr ? 05:34:28 18° N 05:34:28 18° N 05:35:42 10° N visible
08 Apr ? 06:00:38 19° N 06:00:38 19° N 06:01:53 10° N visible
09 Apr ? 04:49:04 12° NE 04:49:04 12° NE 04:49:38 10° NNE visible
09 Apr ? 06:26:49 16° NNW 06:26:49 16° NNW 06:27:46 10° NNW visible
10 Apr ? 05:15:14 17° NNE 05:15:14 17° NNE 05:16:37 10° NNE visible
10 Apr ? 06:52:59 11° NW 06:52:59 11° NW 06:53:17 10° NW visible
